This is the latest recevied weather packets stored in our database for station/object 5B4ALR-13. If no packets are shown the sender has not sent any weather packets the latest 10 day(s).
| Time | Temp. | Humidity | Pressure | Rain* | Wind** | Luminosity | Snow |
|---|---|---|---|---|---|---|---|
| 1778205069 | 18.33° C | 44% | 1017.7 hPa | 0 mm | - | - | - |
| 1778204469 | 18.33° C | 45% | 1017.7 hPa | 0 mm | - | - | - |
| 1778203869 | 18.33° C | 45% | 1017.7 hPa | 0 mm | - | - | - |
| 1778203270 | 18.33° C | 46% | 1017.7 hPa | 0 mm | - | - | - |
| 1778202669 | 18.33° C | 47% | 1017.7 hPa | 0 mm | - | - | - |
| 1778202069 | 18.33° C | 47% | 1017.7 hPa | 0 mm | - | - | - |
| 1778201469 | 18.33° C | 47% | 1017.7 hPa | 0 mm | - | - | - |
| 1778200868 | 17.78° C | 48% | 1017.7 hPa | 0 mm | - | - | - |
| 1778200269 | 17.78° C | 48% | 1017.7 hPa | 0 mm | - | - | - |
| 1778199669 | 17.78° C | 48% | 1017.8 hPa | 0 mm | - | - | - |
| 1778199069 | 17.78° C | 47% | 1017.9 hPa | 0 mm | - | - | - |
| 1778198469 | 17.78° C | 47% | 1018.1 hPa | 0 mm | - | - | - |
| 1778197868 | 18.33° C | 47% | 1018.1 hPa | 0 mm | - | - | - |
| 1778197269 | 18.33° C | 47% | 1018 hPa | 0 mm | - | - | - |
| 1778196668 | 18.33° C | 48% | 1018.1 hPa | 0 mm | - | - | - |
| 1778196069 | 17.78° C | 51% | 1018.2 hPa | 0 mm | - | - | - |
| 1778195468 | 17.78° C | 56% | 1018.3 hPa | 0 mm | - | - | - |
| 1778194869 | 17.78° C | 59% | 1018.3 hPa | 0 mm | - | - | - |
| 1778194269 | 17.78° C | 61% | 1018.2 hPa | 0 mm | - | - | - |
| 1778193669 | 17.78° C | 62% | 1018.3 hPa | 0 mm | - | - | - |
| 1778193069 | 17.78° C | 63% | 1018.4 hPa | 0 mm | - | - | - |
| 1778192469 | 17.78° C | 65% | 1018.5 hPa | 0 mm | - | - | - |
| 1778191868 | 17.78° C | 67% | 1018.6 hPa | 0 mm | - | - | - |
| 1778191270 | 17.78° C | 68% | 1018.8 hPa | 0 mm | - | - | - |
| 1778190668 | 17.78° C | 69% | 1018.9 hPa | 0 mm | - | - | - |
* Rain latest hour (hover to see other rain measurements)
** Current wind speed in m/s (hover to see current wind gust speed)